Location: Étouvelles
(49.5207°N, 3.5808°E)
Time: 15:17:38
(UTC+00:00)

CZ-4C R/B - Pass Details

Date: 03 February 2023
Orbit: 456 x 612 km, 98.1° (Epoch: 25 March)

Event Time Altitude Azimuth Distance (km) Brightness Sun altitude
Rises 18:07:27 0° 14° (NNE) 2,725 6.6 -13.7°
Reaches altitude 10° 18:09:38 10° 15° (NNE) 1,799 5.7 -14.0°
Maximum altitude 18:13:30 86° 103° (ESE) 522 3.1 -14.7°
Drops below altitude 10° 18:17:09 10° 194° (SSW) 1,692 6.1 -15.3°
Sets 18:19:09 0° 195° (SSW) 2,546 7.0 -15.6°
